West Palm Beach, FL

4:15 PM EDT on April 22, 2018 (GMT -0400)
Palm Beach International

Weather History for KPBI - January, 2014

Change the Weather History Date:

Thursday, January 30, 2014

  Actual Average Record
Temperature  
Mean Temperature 66 °F 66 °F  
Max Temperature 67 °F 75 °F 87 °F (1991)
Min Temperature 64 °F 57 °F 35 °F (1966)
Degree Days  
Heating Degree Days 0 2  
Month to date heating degree days 98 86  
Since 1 July heating degree days 102 157  
Cooling Degree Days 1 4  
Month to date cooling degree days 114 102  
Year to date cooling degree days 114 102  
Growing Degree Days 15 (Base 50)    
Moisture  
Dew Point 64 °F    
Average Humidity 97    
Maximum Humidity 100    
Minimum Humidity 93    
Precipitation  
Precipitation 2.72 in 0.09 in 3.35 in (1926)
Month to date precipitation 9.93 3.04  
Year to date precipitation 9.93 3.04  
Snow  
Snow 0.00 in - - ()
Month to date snowfall 0.0  
Since 1 July snowfall 0.0  
Snow Depth 0.00 in    
Sea Level Pressure  
Sea Level Pressure 30.06 in    
Wind  
Wind Speed 7 mph (NNW)    
Max Wind Speed 16 mph    
Max Gust Speed 22 mph    
Visibility 4 miles    
Events Fog , Rain    
T = Trace of Precipitation, MM = Missing Value Source: NWS Daily Summary

Daily Weather History Graph

Daily Weather History Graph

Search for Another Location

Airport or City:

Astronomy

Jan. 30, 2014 Rise Set
Actual Time 7:06 AM EST 6:01 PM EST
Civil Twilight 6:42 AM EST 6:25 PM EST
Nautical Twilight 6:14 AM EST 6:53 PM EST
Astronomical Twilight 5:46 AM EST 7:20 PM EST
Moon 6:34 AM EST (1/30) 6:05 PM EST (1/30)
Length of Visible Light 11h 43m
Length of Day
10h 54m
Waning Crescent, 0% of the Moon is Illuminated
Jan 30
Waning Crescent
Jan 30
New
Feb 6
First Quarter
Feb 14
Full
Feb 22
Last Quarter

Hourly Weather History & Observations

Time (EST) Temp. Dew Point Humidity Pressure Visibility Wind Dir Wind Speed Gust Speed Precip Events Conditions
12:13 AM 64.9 °F 64.0 °F 97% 30.07 in 10.0 mi NW 5.8 mph - N/A   Overcast
12:53 AM 64.9 °F 63.0 °F 93% 30.06 in 4.0 mi NW 8.1 mph - 0.00 in Rain Light Rain
1:53 AM 64.0 °F 62.1 °F 93% 30.06 in 2.5 mi NW 10.4 mph - 0.00 in Rain Light Rain
2:00 AM 64.0 °F 62.1 °F 93% 30.06 in 3.0 mi NW 9.2 mph - 0.00 in Rain Light Rain
2:33 AM 64.0 °F 63.0 °F 96% 30.04 in 3.0 mi NNW 4.6 mph - 0.00 in   Overcast
2:53 AM 64.0 °F 63.0 °F 96% 30.04 in 3.0 mi NNW 5.8 mph - 0.00 in Rain Light Rain
3:10 AM 64.0 °F 63.0 °F 96% 30.03 in 2.5 mi North 5.8 mph - 0.00 in Rain Light Rain
3:53 AM 64.0 °F 63.0 °F 96% 30.03 in 2.0 mi NW 4.6 mph - 0.00 in Rain Light Rain
4:03 AM 64.0 °F 63.0 °F 96% 30.03 in 1.5 mi NNW 4.6 mph - 0.00 in Rain Light Rain
4:15 AM 64.0 °F 63.0 °F 96% 30.02 in 2.0 mi North 4.6 mph - 0.00 in Rain Light Rain
4:24 AM 64.0 °F 63.0 °F 96% 30.02 in 3.0 mi NNW 6.9 mph - 0.00 in Rain Light Rain
4:35 AM 64.0 °F 63.0 °F 96% 30.03 in 2.5 mi WNW 8.1 mph - 0.04 in Rain Rain
4:47 AM 64.4 °F 62.6 °F 94% 30.03 in 4.0 mi NW 6.9 mph - 0.06 in Rain Light Rain
4:53 AM 64.0 °F 63.0 °F 96% 30.03 in 4.0 mi NNW 5.8 mph - 0.06 in Rain Light Rain
5:40 AM 64.9 °F 63.0 °F 93% 30.04 in 6.0 mi NW 9.2 mph - 0.01 in Rain Light Rain
5:53 AM 64.0 °F 63.0 °F 96% 30.04 in 6.0 mi WNW 8.1 mph - 0.02 in Rain Rain
6:05 AM 64.9 °F 63.0 °F 93% 30.04 in 1.5 mi NNW 6.9 mph - 0.09 in Rain Heavy Rain
6:24 AM 64.9 °F 64.0 °F 97% 30.04 in 2.0 mi NNW 10.4 mph - 0.35 in Rain Heavy Rain
6:38 AM 66.0 °F 64.0 °F 93% 30.05 in 4.0 mi North 8.1 mph - 0.40 in Rain Light Rain
6:53 AM 64.9 °F 64.0 °F 97% 30.05 in 3.0 mi NW 9.2 mph - 0.43 in Rain Rain
7:53 AM 64.0 °F 62.1 °F 93% 30.07 in 4.0 mi NNW 10.4 mph - 0.13 in Rain Rain
8:53 AM 66.0 °F 64.0 °F 93% 30.08 in 5.0 mi NNW 10.4 mph - 0.14 in Rain Light Rain
9:20 AM 66.0 °F 64.0 °F 93% 30.11 in 0.5 mi SSW 8.1 mph - 0.08 in Fog , Rain Heavy Rain
9:29 AM 66.0 °F 63.0 °F 90% 30.12 in 1.0 mi West 6.9 mph - 0.19 in Rain Heavy Rain
9:45 AM 66.0 °F 64.0 °F 93% 30.11 in 5.0 mi NNW 10.4 mph - 0.24 in Rain Light Rain
9:53 AM 66.9 °F 64.0 °F 90% 30.11 in 5.0 mi NNW 9.2 mph - 0.24 in Rain Light Rain
10:09 AM 66.0 °F 64.0 °F 93% 30.11 in 10.0 mi NW 9.2 mph - 0.00 in   Overcast
10:14 AM 64.9 °F 64.0 °F 97% 30.11 in 10.0 mi NNW 10.4 mph - 0.00 in   Overcast
10:30 AM 64.0 °F 62.1 °F 93% 30.11 in 10.0 mi NNW 9.2 mph - 0.00 in   Overcast
10:53 AM 64.0 °F 62.1 °F 93% 30.12 in 10.0 mi NNW 4.6 mph - 0.00 in Rain Light Rain
11:53 AM 64.9 °F 63.0 °F 93% 30.09 in 10.0 mi NW 4.6 mph - 0.00 in Rain Light Rain
12:53 PM 66.0 °F 64.0 °F 93% 30.06 in 10.0 mi North 5.8 mph - 0.00 in Rain Light Rain
1:11 PM 66.9 °F 64.0 °F 90% 30.06 in 10.0 mi Calm Calm - 0.00 in Rain Light Rain
1:53 PM 66.9 °F 64.9 °F 93% 30.04 in 5.0 mi NNW 5.8 mph - 0.05 in Rain Light Rain
2:38 PM 66.0 °F 64.0 °F 93% 30.03 in 1.0 mi NNW 8.1 mph - 0.13 in Rain Heavy Rain
2:49 PM 66.2 °F 64.4 °F 94% 30.04 in 1.2 mi West 4.6 mph - 0.23 in Rain Heavy Rain
2:51 PM 66.2 °F 64.4 °F 94% 30.04 in 1.2 mi West 4.6 mph - 0.24 in Rain Heavy Rain
2:53 PM 66.0 °F 64.0 °F 93% 30.04 in 1.0 mi NW 5.8 mph - 0.25 in Rain Heavy Rain
3:45 PM 66.0 °F 64.0 °F 93% 30.05 in 2.0 mi NNW 6.9 mph - 0.38 in Rain Heavy Rain
3:53 PM 66.0 °F 64.0 °F 93% 30.05 in 2.5 mi NNW 8.1 mph - 0.39 in Rain Rain
3:56 PM 66.0 °F 64.0 °F 93% 30.06 in 10.0 mi North 6.9 mph - 0.00 in Rain Light Rain
4:08 PM 66.0 °F 64.0 °F 93% 30.06 in 5.0 mi North 3.5 mph - 0.00 in Rain Rain
4:13 PM 66.0 °F 64.0 °F 93% 30.06 in 1.5 mi NNW 8.1 mph - 0.02 in Rain Heavy Rain
4:21 PM 64.9 °F 64.0 °F 97% 30.06 in 1.0 mi NNW 10.4 mph - 0.07 in Rain Heavy Rain
4:31 PM 64.9 °F 64.0 °F 97% 30.06 in 2.0 mi NNW 10.4 mph - 0.15 in Rain Heavy Rain
4:43 PM 64.9 °F 63.0 °F 93% 30.06 in 1.0 mi NNW 10.4 mph - 0.19 in Rain Heavy Rain
4:53 PM 64.0 °F 63.0 °F 96% 30.06 in 1.0 mi North 10.4 mph - 0.33 in Rain Heavy Rain
5:02 PM 64.0 °F 63.0 °F 96% 30.05 in 4.0 mi North 11.5 mph - 0.07 in Rain Rain
5:44 PM 64.0 °F 63.0 °F 96% 30.06 in 1.2 mi NNE 6.9 mph - 0.11 in Rain Heavy Rain
5:53 PM 64.0 °F 63.0 °F 96% 30.07 in 1.2 mi NNE 4.6 mph - 0.15 in Rain Heavy Rain
6:05 PM 64.0 °F 63.0 °F 96% 30.07 in 2.0 mi NE 5.8 mph - 0.02 in Rain Rain
6:18 PM 64.0 °F 63.0 °F 96% 30.06 in 10.0 mi NNE 5.8 mph - 0.04 in Rain Light Rain
6:53 PM 64.0 °F 63.0 °F 96% 30.06 in 2.0 mi North 6.9 mph - 0.08 in Rain Heavy Rain
7:43 PM 64.9 °F 64.0 °F 97% 30.06 in 4.0 mi NNE 6.9 mph - 0.09 in Rain Light Rain
7:53 PM 66.0 °F 64.0 °F 93% 30.06 in 4.0 mi NNE 5.8 mph - 0.09 in Rain Light Rain
8:25 PM 66.0 °F 64.0 °F 93% 30.06 in 3.0 mi NNE 8.1 mph - 0.03 in Rain Light Rain
8:53 PM 66.9 °F 64.9 °F 93% 30.07 in 3.0 mi NNE 6.9 mph - 0.08 in Rain Rain
9:53 PM 66.9 °F 64.9 °F 93% 30.07 in 10.0 mi North 6.9 mph - 0.02 in Rain Light Rain
10:31 PM 66.9 °F 64.9 °F 93% 30.07 in 4.0 mi North 4.6 mph - 0.01 in Rain Light Rain
10:41 PM 66.9 °F 64.9 °F 93% 30.08 in 2.5 mi North 4.6 mph - 0.02 in Rain Light Rain
10:53 PM 66.9 °F 64.9 °F 93% 30.08 in 2.5 mi WNW 4.6 mph - 0.03 in Rain Light Rain
11:15 PM 66.0 °F 64.0 °F 93% 30.08 in 2.5 mi NNW 6.9 mph - 0.14 in Rain Rain
11:53 PM 64.9 °F 63.0 °F 93% 30.07 in 2.5 mi NNW 5.8 mph - 0.21 in Rain Rain